Theta_e
302 302 302 303 304 304 304 304 304 305 306 308 309 310 309 309 310 311 311 310 310 310 309 307 306 307 305 307 309 306 307 307 305 302 301 300 300 299 299 297 296 294 292
301 301 300 300 300 300 299 300 301 300 300 300 301 301 300 300 300 300 301 301 301 301 300 300 299 301 299 300 300 299 300 300 299 297 297 296 295 294 293 292 293 293 291
298 298 297 298 298 297 297 297 298 298 298 298 298 297 297 296 296 296 297 297 297 296 296 295 295 295 294 294 295 295 295 296 294 293 293 292 292 291 290 290 290 290 292
296 295 294 295 295 295 295 295 296 296 295 296 296 296 294 293 293 293 293 294 294 294 293 293 293 293 292 291 291 291 292 291 290 289 288 288 289 289 287 286 286 286 287
294 294 293 293 293 293 293 293 293 293 293 293 293 293 293 292 291 290 291 291 291 292 292 292 292 288 289 290 290 289 289 289 288 287 287 286 286 284 286 286 284 284 284
292 292 292 292 291 291 291 291 291 291 291 291 291 290 290 290 291 291 290 290 291 290 290 290 290 288 289 291 292 292 288 288 288 287 286 285 286 286 285 284 283 280 280
291 290 290 290 290 289 289 289 289 289 289 289 289 289 289 289 291 291 289 289 289 289 289 288 288 288 287 287 289 290 288 289 291 289 287 286 286 287 287 285 283 281 281
289 289 288 288 288 287 288 287 287 287 287 287 287 288 287 289 291 291 289 288 288 287 287 286 285 285 287 286 286 286 286 286 287 287 289 289 288 288 287 287 285 284 283
288 287 286 287 286 286 286 285 286 286 285 285 285 286 285 285 290 291 288 286 285 285 285 285 285 285 289 290 286 285 285 285 290 291 291 291 289 288 287 286 281 280 279
286 285 284 285 285 285 284 284 283 284 284 283 284 284 282 284 289 290 287 284 284 282 283 285 287 287 289 289 285 285 285 285 287 286 287 287 286 284 283 282 279 274 275
284 284 283 283 283 283 283 283 282 283 283 283 283 283 282 282 285 289 289 284 282 282 284 285 285 287 287 287 286 285 285 285 285 285 284 282 281 280 279 279 279 277 274
283 282 280 279 281 282 279 282 281 282 280 280 281 281 281 283 285 286 287 287 286 283 283 284 285 286 285 285 282 283 283 282 279 278 277 277 276 276 276 277 278 277 279
278 275 275 276 279 279 278 279 278 279 277 279 278 277 279 281 281 284 284 285 285 284 284 285 285 284 282 279 281 280 277 276 274 273 273 274 275 275 273 272 273 272 275
273 274 275 275 277 276 278 279 277 276 276 277 276 274 275 277 282 282 282 281 281 283 284 284 284 282 281 277 275 275 274 274 273 271 270 268 268 268 269 270 265 265 261
273 274 275 275 273 275 276 276 278 277 278 272 272 275 270 271 281 283 282 280 281 282 281 281 279 278 276 272 268 268 268 268 267 264 263 263 263 264 265 263 261 259 259
270 272 273 274 272 273 272 273 282 283 284 284 284 279 280 282 283 282 282 281 282 282 275 277 275 271 264 263 262 262 263 263 262 262 259 260 259 261 261 261 259 256 257
262 267 269 270 272 270 270 270 270 276 283 284 284 282 282 282 281 281 281 280 280 278 273 271 263 263 261 261 261 260 260 260 259 260 259 259 258 258 259 259 258 254 256
259 263 264 266 265 266 266 267 266 268 266 271 279 279 281 281 280 280 279 274 263 265 260 259 259 259 259 259 258 258 258 258 258 259 258 256 256 256 257 255 255 254 253
265 264 263 266 265 264 265 264 264 263 263 263 268 276 279 280 278 277 275 262 260 257 257 259 256 257 257 256 255 255 254 255 254 254 253 254 253 254 253 253 254 255 253
261 266 265 266 269 270 266 267 268 268 270 273 274 274 271 269 264 261 258 256 257 255 255 257 254 254 255 255 254 254 255 254 254 253 252 252 252 252 252 252 252 251 251
259 260 262 260 261 264 266 269 272 273 273 272 272 272 274 266 264 261 256 255 255 254 254 254 253 254 253 253 253 253 252 252 251 251 251 251 250 252 249 250 250 250 249
256 257 257 258 260 263 264 264 265 266 268 266 266 270 272 264 262 261 259 257 256 258 254 255 252 252 252 253 253 252 251 251 250 249 250 250 250 249 249 249 249 249 249
254 255 256 256 257 260 262 264 264 266 264 265 265 263 263 261 260 260 261 259 259 258 253 252 253 252 250 251 249 251 253 251 250 248 249 249 248 249 248 248 247 249 248
253 253 253 253 254 255 255 258 260 262 263 262 261 260 261 259 259 260 260 259 259 256 251 251 250 251 251 250 248 247 247 247 246 247 249 251 248 247 248 247 247 246 247
252 252 252 253 253 254 255 255 258 259 260 261 260 259 258 259 259 259 259 259 258 255 251 250 249 250 250 250 249 249 253 253 249 249 248 250 251 247 246 245 246 248 248
252 252 252 252 254 254 255 255 256 257 258 259 260 259 259 259 259 260 259 259 256 251 251 250 250 251 251 250 250 255 261 260 254 252 249 251 251 247 246 246 246 246 246
Wind_Speed
11 11 11 7 7 10 7 6 7 6 6 8 8 6 8 7 6 6 5 5 5 5 5 4 5 4 3 3 3 2 2 1 4 3 1 1 1 2 1 1 1 2 3
11 11 10 8 6 12 6 7 6 8 7 8 7 8 7 7 6 5 5 5 6 7 6 6 5 4 5 4 3 3 2 2 1 4 2 2 1 2 1 2 2 3 3
11 11 9 7 5 12 6 7 8 9 8 8 8 8 8 7 8 8 7 6 6 5 6 6 6 6 5 4 4 4 3 3 2 2 3 2 1 2 2 2 2 3 3
10 10 9 7 9 8 8 9 10 8 9 8 8 8 7 7 7 6 6 6 6 5 5 5 5 5 4 4 3 4 3 3 2 1 2 2 1 2 0 1 3 2 3
10 10 8 7 7 7 9 9 8 8 7 6 6 7 6 7 6 6 6 6 6 6 6 6 6 6 6 4 2 4 4 3 2 2 2 2 2 3 2 2 2 3 3
9 9 7 8 8 8 7 7 7 7 6 6 7 6 6 5 11 12 8 5 6 6 6 6 6 7 7 9 8 4 4 4 3 2 1 2 3 2 2 1 2 2 3
8 7 7 6 7 6 6 6 6 6 5 6 6 6 7 6 11 11 9 5 5 5 6 5 5 5 6 6 8 7 5 3 2 2 2 2 3 3 1 2 3 2 3
7 6 6 6 6 6 6 6 6 5 6 5 6 6 6 6 11 10 8 5 5 6 6 6 5 6 6 6 5 6 6 6 6 4 3 3 3 4 3 2 2 3 4
6 5 5 5 6 6 6 5 4 4 4 4 4 5 6 5 12 13 8 6 6 7 6 7 6 5 10 11 6 6 6 4 5 7 6 9 12 13 11 3 3 4 3
4 4 5 5 5 5 4 4 2 3 4 3 5 6 6 6 12 12 8 3 5 4 5 7 15 11 15 14 6 5 5 4 4 4 3 7 9 10 13 7 4 2 2
3 3 4 3 2 1 2 2 3 4 5 5 5 5 6 5 7 14 14 5 3 4 6 5 5 13 13 14 13 7 6 4 5 3 4 5 5 6 5 5 5 3 2
3 2 2 2 2 1 3 3 3 5 5 4 5 4 3 5 9 11 12 12 8 4 4 3 3 11 13 15 10 14 13 9 4 4 4 5 5 5 5 4 6 4 2
4 4 2 3 2 2 1 2 3 3 3 2 2 2 1 2 3 10 10 8 8 4 2 4 7 9 13 10 14 14 10 5 4 4 4 4 4 3 4 4 4 4 4
5 4 4 4 4 3 2 0 2 2 2 2 2 2 1 0 3 4 4 4 5 4 5 2 7 9 11 10 6 8 5 5 4 4 3 2 3 3 3 4 3 4 3
5 5 5 3 3 3 3 2 2 1 3 3 3 3 2 1 2 4 5 3 3 3 2 1 2 4 5 4 4 5 5 5 5 3 3 3 3 3 4 4 3 4 3
4 4 4 4 3 2 2 3 3 1 3 4 6 4 2 2 6 6 5 5 7 4 3 2 4 4 3 2 2 2 4 4 3 3 3 2 2 3 3 4 3 3 3
3 5 4 3 3 2 1 1 2 4 1 2 7 5 3 6 8 6 5 5 9 5 3 3 3 3 2 2 2 3 2 2 2 3 2 3 3 3 4 4 3 3 4
4 5 3 4 3 3 2 1 1 2 1 2 1 2 1 7 7 7 5 7 4 5 3 3 3 3 2 2 2 2 2 2 3 3 4 3 3 3 4 3 3 3 2
5 4 4 3 3 3 2 2 1 1 2 2 1 3 4 6 9 8 9 3 3 2 2 4 2 3 2 2 2 2 2 3 2 3 3 3 3 3 3 3 3 4 3
4 7 4 4 4 3 2 1 1 2 2 2 1 1 2 3 3 3 3 2 3 2 2 4 2 3 2 3 2 3 3 3 3 3 2 3 3 3 3 3 3 3 3
3 4 5 3 2 2 2 3 3 3 3 2 2 1 5 3 3 2 2 2 2 2 3 3 2 2 2 3 3 4 3 2 2 2 3 3 3 3 2 2 3 3 3
2 3 3 3 3 4 3 3 3 2 3 2 2 3 9 4 3 4 3 2 1 3 2 3 2 2 2 3 3 4 3 3 2 2 3 3 3 3 3 3 3 3 3
3 4 4 3 3 4 3 3 2 2 2 3 3 3 3 3 3 3 3 2 2 3 2 3 3 3 2 3 2 3 4 3 2 3 3 3 3 3 3 3 2 3 4
3 3 3 3 3 3 3 3 3 3 3 3 3 2 3 3 3 3 3 2 3 3 2 2 2 4 3 3 2 2 2 2 2 3 5 5 4 3 3 4 3 3 3
2 3 3 3 3 3 3 3 3 2 3 2 3 2 2 3 3 3 3 3 3 3 2 2 2 3 4 5 3 3 3 4 4 4 3 5 7 5 4 3 3 4 4
2 2 2 2 3 3 2 2 2 2 2 2 2 2 3 3 3 3 2 3 3 2 2 2 2 3 4 3 3 3 4 5 5 5 4 4 5 4 4 4 5 3 3
Wind_Direction
80 74 68 68 78 75 72 75 85 88 71 65 61 49 49 40 29 47 39 30 48 42 37 31 21 19 359 356 1 2 332 333 268 290 297 299 258 243 306 344 342 344 340
79 79 79 72 69 84 55 63 66 75 62 68 71 62 52 46 33 39 42 31 36 31 19 20 13 3 7 360 358 340 321 320 246 278 288 303 297 354 321 331 345 347 344
78 78 71 69 97 76 65 65 63 66 60 59 65 63 58 42 34 27 31 29 29 29 21 21 6 11 5 0 355 347 343 338 340 282 296 321 300 12 354 353 337 349 345
80 79 77 72 69 77 73 70 67 61 66 60 58 66 62 50 36 24 24 27 28 27 26 25 18 21 13 356 351 337 339 331 312 288 278 286 298 322 24 298 336 335 314
86 86 77 69 70 73 69 65 63 62 65 65 68 64 65 55 33 18 15 19 22 18 20 15 15 5 359 354 336 332 335 318 321 317 297 288 297 338 336 333 309 321 308
83 81 74 70 66 64 66 69 72 69 66 67 61 69 70 52 31 28 21 24 25 24 13 5 8 15 5 7 7 15 14 335 322 319 324 325 323 343 4 355 341 4 331
81 75 72 72 76 68 72 77 73 69 70 62 56 58 66 51 30 24 20 37 40 31 27 15 11 13 12 14 10 19 23 18 251 306 324 331 336 352 343 16 0 336 296
76 75 68 72 76 69 66 65 61 53 52 53 48 50 66 47 29 21 27 43 49 40 38 36 32 13 8 19 25 32 31 47 36 33 36 21 42 29 28 20 355 300 300
61 58 61 70 79 70 69 68 62 69 62 60 62 61 64 46 31 28 40 43 48 43 36 31 25 22 15 35 43 47 41 25 49 50 59 69 61 46 30 4 17 332 312
50 49 45 46 68 79 86 82 61 63 72 59 58 57 58 52 34 39 48 49 67 56 40 41 42 39 37 40 41 33 38 2 23 30 43 62 53 42 35 30 359 340 333
43 46 42 35 70 91 117 100 85 70 63 56 63 63 62 56 37 41 41 40 65 58 50 42 39 36 38 38 38 28 21 7 11 48 65 55 41 29 19 7 11 5 340
8 36 30 347 326 43 83 74 66 73 69 55 64 62 39 51 63 50 49 51 55 60 52 39 36 50 43 41 35 29 28 26 20 43 44 33 27 12 4 354 7 355 10
359 350 332 329 335 332 103 93 83 79 98 98 95 93 68 63 48 51 41 47 47 35 25 46 41 66 55 36 34 36 33 25 30 45 45 39 22 10 341 344 337 356 58
342 322 311 316 321 325 334 54 116 131 120 116 102 73 24 35 51 40 29 19 25 42 357 13 86 73 68 57 36 35 30 32 42 44 40 351 346 353 9 354 8 352 46
323 318 313 302 293 296 269 219 195 236 147 158 187 151 117 48 83 40 22 3 16 356 13 52 58 54 44 43 35 33 26 27 39 9 29 10 6 9 10 353 24 10 56
339 343 337 324 303 292 306 317 317 177 162 161 151 142 164 141 85 48 353 10 4 31 45 76 76 73 68 40 47 33 28 23 16 26 23 23 31 28 24 3 28 43 30
336 322 318 331 327 301 317 301 298 342 357 205 142 93 119 110 68 44 21 54 29 36 84 79 89 87 80 63 64 51 46 355 352 44 48 23 26 30 32 16 356 31 354
337 328 337 322 324 358 355 265 150 154 229 300 25 100 310 119 79 39 23 61 26 26 72 104 100 99 85 82 59 68 22 18 35 32 39 28 37 58 34 15 9 10 357
354 347 341 334 330 327 347 25 35 85 176 198 9 43 66 99 78 49 41 100 134 81 68 78 101 97 94 102 98 69 72 51 43 47 23 37 26 60 32 16 5 18 15
342 348 4 344 338 336 323 320 297 220 234 229 197 169 140 70 49 20 35 71 90 92 104 98 78 91 105 106 96 79 61 46 39 43 29 33 27 52 57 39 23 35 5
335 333 343 351 6 334 328 343 353 12 21 31 76 101 134 119 137 118 99 77 114 117 107 103 98 92 80 84 86 82 75 54 51 48 41 28 31 51 32 54 46 40 29
337 332 351 345 338 354 346 336 343 14 21 97 56 47 86 81 105 110 95 77 76 107 122 124 114 105 95 103 121 107 97 82 43 57 65 59 64 53 47 58 30 33 33
358 2 356 345 353 349 351 351 355 4 28 111 95 87 76 91 100 104 110 96 82 93 95 101 115 81 49 65 86 131 126 150 192 155 114 87 66 59 57 60 40 33 36
8 13 359 348 6 5 358 347 352 17 85 90 92 86 97 103 106 108 110 101 86 78 66 94 97 116 96 70 69 79 111 133 132 133 133 112 96 65 59 61 41 50 60
11 9 8 354 351 343 343 355 15 46 81 96 99 92 91 96 100 97 101 95 102 98 73 73 84 102 101 109 102 92 76 89 116 117 97 93 95 90 77 74 57 41 42
9 23 6 358 1 5 19 18 21 66 98 106 111 108 121 120 117 123 116 114 117 95 86 53 77 93 101 111 135 146 128 112 93 99 106 93 96 78 76 79 61 59 65